Regional Weather Roundup
Issued by NWS

Home | Current Version | Previous Version | Graphics & Text | Print | Product List | Glossary On
Versions: 1 2 3 4 5 6 7 8 9 10 11 12 13 14 15 16 17 18 19 20 21 22 23 24 25 26 27 28 29 30 31 32 33 34 35 36 37 38 39 40 41 42 43 44 45 46 47 48 49 50
000
ASUS45 KCYS 232210
RWRWY

WYOMING REGIONAL WEATHER ROUNDUP
NATIONAL WEATHER SERVICE CHEYENNE WY
400 PM MDT SAT JUL 23 2016

NOTE:  "FAIR" INDICATES FEW OR NO CLOUDS BELOW 12,000 FEET
WITH NO SIGNIFICANT WEATHER AND/OR OBSTRUCTIONS TO VISIBILITY.

WYZ001-232300-
YELLOWSTONE NATIONAL PARK

CITY           SKY/WX    TMP DP  RH WIND       PRES   REMARKS
LK YELLOWSTONE   N/A     70  27  20 VRB6      30.31F
W YELLOWSTONE  NOT AVBL

$$
WYZ002>013-054>058-071-098>099-232300-
NORTHERN WYOMING

CITY           SKY/WX    TMP DP  RH WIND       PRES   REMARKS
JACKSON        SUNNY     79  27  14 SW15      30.21S
CODY           FAIR      81  41  24 NE9G17    30.07F
GREYBULL       FAIR      89  30  12 NE3       29.97F
WORLAND        FAIR      89  31  12 N5        29.98F
SHERIDAN       FAIR      85  35  16 NW7       30.03F
BUFFALO        FAIR      83  41  22 N9        30.10S
GILLETTE       FAIR      85  39  19 NW9G18    30.04F
HULETT         FAIR      82  39  21 N12G21    30.04F
NEWCASTLE      FAIR      86  32  14 NW13G24   30.02S

$$
WYZ014>020-022>026-101>103-232300-
CENTRAL WYOMING

CITY           SKY/WX    TMP DP  RH WIND       PRES   REMARKS
BIG PINEY      FAIR      82  22  11 NW9G20    30.23F
PINEDALE       FAIR      79  19  11 NW15      30.24F
DUBOIS         FAIR      79  19  11 W22G32    30.20S
LANDER         FAIR      90  21   8 VRB5      30.04F
RIVERTON       FAIR      90  16   6 NW10      30.06F
CASPER         FAIR      92  29  10 VRB5      30.03F
DOUGLAS          N/A    N/A N/A N/A MISG      30.02F

$$
WYZ021-027>030-104>119-232300-
SOUTHERN WYOMING

CITY           SKY/WX    TMP DP  RH WIND       PRES   REMARKS
EVANSTON       FAIR      82  15   8 W14G26    30.27F
KEMMERER         N/A    N/A N/A N/A W24G31    30.26F
FORT BRIDGER   FAIR      87  16   7 W23G31    30.28F
ROCK SPRINGS   FAIR      87  14   6 W20G30    30.20F
DIXON          FAIR      87  37  17 W10G22    30.21F
RAWLINS        FAIR      88  20   8 W20G32    30.18F
SARATOGA       FAIR      86  30  13 W15       30.22F
LARAMIE        PTSUNNY   84  36  18 NW18      30.21F
CHEYENNE       FAIR      91  39  16 NW13G24   30.10F
TORRINGTON     FAIR      96  40  14 N8        29.94F HX  92
PINE BLUFFS    MOCLDY    82  45  26 W3G28     30.05S

$$



USA.gov is the U.S. government's official web portal to all federal, state and local government web resources and services.